Time,TemperatureF,DewpointF,PressureIn,WindDirection,WindDirectionDegrees,WindSpeedMPH,WindSpeedGustMPH,Humidity,HourlyPrecipIn,Conditions,Clouds,dailyrainin,SoftwareType,DateUTC
2013-04-09 00:00:00,46.0,39.0,-100.00,NNE,19,2.0,-999.0,74,0.00,,,-99.99,,2013-04-09 07:00:00,
2013-04-09 00:22:00,46.0,39.0,-100.00,NNE,19,2.0,-999.0,74,0.00,,,-99.99,,2013-04-09 07:22:00,
2013-04-09 00:32:00,46.0,39.0,-100.00,NNE,19,2.0,-999.0,74,0.00,,,-99.99,,2013-04-09 07:32:00,
2013-04-09 00:42:00,46.0,39.0,-100.00,NNE,19,2.0,-999.0,74,0.00,,,-99.99,,2013-04-09 07:42:00,
2013-04-09 00:52:00,46.0,39.0,-100.00,NNE,19,2.0,-999.0,74,0.00,,,-99.99,,2013-04-09 07:52:00,
2013-04-09 01:00:00,43.0,39.0,-100.00,NNW,344,4.0,-999.0,85,0.00,,,-99.99,,2013-04-09 08:00:00,
2013-04-09 01:22:00,43.0,39.0,-100.00,NNW,344,4.0,-999.0,85,0.00,,,-99.99,,2013-04-09 08:22:00,
2013-04-09 01:32:00,43.0,39.0,-100.00,NNW,344,4.0,-999.0,85,0.00,,,-99.99,,2013-04-09 08:32:00,
2013-04-09 01:42:00,43.0,39.0,-100.00,NNW,344,4.0,-999.0,85,0.00,,,-99.99,,2013-04-09 08:42:00,
2013-04-09 01:52:00,43.0,39.0,-100.00,NNW,344,4.0,-999.0,85,0.00,,,-99.99,,2013-04-09 08:52:00,
2013-04-09 02:00:00,42.0,39.0,-100.00,SSW,198,4.0,-999.0,90,0.00,,,-99.99,,2013-04-09 09:00:00,
2013-04-09 02:22:00,42.0,39.0,-100.00,SSW,198,4.0,-999.0,90,0.00,,,-99.99,,2013-04-09 09:22:00,
2013-04-09 02:33:00,42.0,39.0,-100.00,SSW,198,4.0,-999.0,90,0.00,,,-99.99,,2013-04-09 09:33:00,
2013-04-09 02:44:00,42.0,39.0,-100.00,SSW,198,4.0,-999.0,90,0.00,,,-99.99,,2013-04-09 09:44:00,
2013-04-09 02:52:00,42.0,39.0,-100.00,SSW,198,4.0,-999.0,90,0.00,,,-99.99,,2013-04-09 09:52:00,
2013-04-09 03:00:00,42.0,39.0,-100.00,SSE,167,2.0,-999.0,90,0.00,,,-99.99,,2013-04-09 10:00:00,
2013-04-09 03:24:00,42.0,39.0,-100.00,SSE,167,2.0,-999.0,90,0.00,,,-99.99,,2013-04-09 10:24:00,
2013-04-09 03:33:00,42.0,39.0,-100.00,SSE,167,2.0,-999.0,90,0.00,,,-99.99,,2013-04-09 10:33:00,
2013-04-09 03:43:00,42.0,39.0,-100.00,SSE,167,2.0,-999.0,90,0.00,,,-99.99,,2013-04-09 10:43:00,
2013-04-09 03:53:00,42.0,39.0,-100.00,SSE,167,2.0,-999.0,90,0.00,,,-99.99,,2013-04-09 10:53:00,
2013-04-09 04:00:00,40.0,38.0,-100.00,SSW,196,2.0,-999.0,92,0.00,,,-99.99,,2013-04-09 11:00:00,
2013-04-09 04:22:00,40.0,38.0,-100.00,SSW,196,2.0,-999.0,92,0.00,,,-99.99,,2013-04-09 11:22:00,
2013-04-09 04:32:00,40.0,38.0,-100.00,SSW,196,2.0,-999.0,92,0.00,,,-99.99,,2013-04-09 11:32:00,
2013-04-09 04:42:00,40.0,38.0,-100.00,SSW,196,2.0,-999.0,92,0.00,,,-99.99,,2013-04-09 11:42:00,
2013-04-09 04:52:00,40.0,38.0,-100.00,SSW,196,2.0,-999.0,92,0.00,,,-99.99,,2013-04-09 11:52:00,
2013-04-09 05:00:00,39.0,37.0,-100.00,SSW,200,2.0,-999.0,94,0.00,,,-99.99,,2013-04-09 12:00:00,
2013-04-09 05:22:00,39.0,37.0,-100.00,SSW,200,2.0,-999.0,94,0.00,,,-99.99,,2013-04-09 12:22:00,
2013-04-09 05:33:00,39.0,37.0,-100.00,SSW,200,2.0,-999.0,94,0.00,,,-99.99,,2013-04-09 12:33:00,
2013-04-09 05:43:00,39.0,37.0,-100.00,SSW,200,2.0,-999.0,94,0.00,,,-99.99,,2013-04-09 12:43:00,
2013-04-09 05:53:00,39.0,37.0,-100.00,SSW,200,2.0,-999.0,94,0.00,,,-99.99,,2013-04-09 12:53:00,
2013-04-09 06:00:00,38.0,37.0,-100.00,South,173,3.0,-999.0,94,0.00,,,-99.99,,2013-04-09 13:00:00,
2013-04-09 06:23:00,38.0,37.0,-100.00,South,173,3.0,-999.0,94,0.00,,,-99.99,,2013-04-09 13:23:00,
2013-04-09 06:33:00,38.0,37.0,-100.00,South,173,3.0,-999.0,94,0.00,,,-99.99,,2013-04-09 13:33:00,
2013-04-09 06:43:00,38.0,37.0,-100.00,South,173,3.0,-999.0,94,0.00,,,-99.99,,2013-04-09 13:43:00,
2013-04-09 06:53:00,38.0,37.0,-100.00,South,173,3.0,-999.0,94,0.00,,,-99.99,,2013-04-09 13:53:00,
2013-04-09 07:00:00,38.0,36.0,-100.00,South,180,4.0,-999.0,95,0.00,,,-99.99,,2013-04-09 14:00:00,
2013-04-09 07:22:00,38.0,36.0,-100.00,South,180,4.0,-999.0,95,0.00,,,-99.99,,2013-04-09 14:22:00,
2013-04-09 07:33:00,38.0,36.0,-100.00,South,180,4.0,-999.0,95,0.00,,,-99.99,,2013-04-09 14:33:00,
2013-04-09 07:43:00,38.0,36.0,-100.00,South,180,4.0,-999.0,95,0.00,,,-99.99,,2013-04-09 14:43:00,
2013-04-09 07:52:00,38.0,36.0,-100.00,South,180,4.0,-999.0,95,0.00,,,-99.99,,2013-04-09 14:52:00,
2013-04-09 08:00:00,38.0,37.0,-100.00,South,174,2.0,-999.0,95,0.00,,,-99.99,,2013-04-09 15:00:00,
2013-04-09 08:23:00,38.0,37.0,-100.00,South,174,2.0,-999.0,95,0.00,,,-99.99,,2013-04-09 15:23:00,
2013-04-09 08:34:00,38.0,37.0,-100.00,South,174,2.0,-999.0,95,0.00,,,-99.99,,2013-04-09 15:34:00,
2013-04-09 08:43:00,38.0,37.0,-100.00,South,174,2.0,-999.0,95,0.00,,,-99.99,,2013-04-09 15:43:00,
2013-04-09 08:53:00,38.0,37.0,-100.00,South,174,2.0,-999.0,95,0.00,,,-99.99,,2013-04-09 15:53:00,
2013-04-09 09:00:00,41.0,39.0,-100.00,North,356,2.0,-999.0,92,0.00,,,-99.99,,2013-04-09 16:00:00,
2013-04-09 09:23:00,41.0,39.0,-100.00,North,356,2.0,-999.0,92,0.00,,,-99.99,,2013-04-09 16:23:00,
2013-04-09 09:34:00,41.0,39.0,-100.00,North,356,2.0,-999.0,92,0.00,,,-99.99,,2013-04-09 16:34:00,
2013-04-09 09:42:00,41.0,39.0,-100.00,North,356,2.0,-999.0,92,0.00,,,-99.99,,2013-04-09 16:42:00,
2013-04-09 09:53:00,41.0,39.0,-100.00,North,356,2.0,-999.0,92,0.00,,,-99.99,,2013-04-09 16:53:00,
2013-04-09 10:00:00,49.0,42.0,-100.00,SSW,211,0.0,-999.0,75,0.00,,,-99.99,,2013-04-09 17:00:00,
2013-04-09 10:23:00,49.0,42.0,-100.00,SSW,211,0.0,-999.0,75,0.00,,,-99.99,,2013-04-09 17:23:00,
2013-04-09 10:33:00,49.0,42.0,-100.00,SSW,211,0.0,-999.0,75,0.00,,,-99.99,,2013-04-09 17:33:00,
2013-04-09 10:43:00,49.0,42.0,-100.00,SSW,211,0.0,-999.0,75,0.00,,,-99.99,,2013-04-09 17:43:00,
2013-04-09 10:53:00,49.0,42.0,-100.00,SSW,211,0.0,-999.0,75,0.00,,,-99.99,,2013-04-09 17:53:00,
2013-04-09 11:00:00,55.0,41.0,-100.00,NNW,330,1.0,-999.0,58,0.00,,,-99.99,,2013-04-09 18:00:00,
2013-04-09 11:23:00,55.0,41.0,-100.00,NNW,330,1.0,-999.0,58,0.00,,,-99.99,,2013-04-09 18:23:00,
2013-04-09 11:33:00,55.0,41.0,-100.00,NNW,330,1.0,-999.0,58,0.00,,,-99.99,,2013-04-09 18:33:00,
2013-04-09 11:43:00,55.0,41.0,-100.00,NNW,330,1.0,-999.0,58,0.00,,,-99.99,,2013-04-09 18:43:00,
2013-04-09 11:53:00,55.0,41.0,-100.00,NNW,330,1.0,-999.0,58,0.00,,,-99.99,,2013-04-09 18:53:00,
2013-04-09 12:00:00,63.0,33.0,-100.00,NNW,340,7.0,-999.0,33,0.00,,,-99.99,,2013-04-09 19:00:00,
2013-04-09 12:32:00,63.0,33.0,-100.00,NNW,340,7.0,-999.0,33,0.00,,,-99.99,,2013-04-09 19:32:00,
2013-04-09 12:42:00,63.0,33.0,-100.00,NNW,340,7.0,-999.0,33,0.00,,,-99.99,,2013-04-09 19:42:00,
2013-04-09 12:52:00,63.0,33.0,-100.00,NNW,340,7.0,-999.0,33,0.00,,,-99.99,,2013-04-09 19:52:00,
2013-04-09 13:00:00,66.0,36.0,-100.00,South,190,6.0,-999.0,33,0.00,,,-99.99,,2013-04-09 20:00:00,
2013-04-09 13:23:00,66.0,36.0,-100.00,South,190,6.0,-999.0,33,0.00,,,-99.99,,2013-04-09 20:23:00,
2013-04-09 13:34:00,66.0,36.0,-100.00,South,190,6.0,-999.0,33,0.00,,,-99.99,,2013-04-09 20:34:00,
2013-04-09 13:52:00,66.0,36.0,-100.00,South,190,6.0,-999.0,33,0.00,,,-99.99,,2013-04-09 20:52:00,
2013-04-09 14:00:00,68.0,34.0,-100.00,NW,322,3.0,-999.0,28,0.00,,,-99.99,,2013-04-09 21:00:00,
2013-04-09 14:33:00,68.0,34.0,-100.00,NW,322,3.0,-999.0,28,0.00,,,-99.99,,2013-04-09 21:33:00,
2013-04-09 14:42:00,68.0,34.0,-100.00,NW,322,3.0,-999.0,28,0.00,,,-99.99,,2013-04-09 21:42:00,
2013-04-09 14:52:00,68.0,34.0,-100.00,NW,322,3.0,-999.0,28,0.00,,,-99.99,,2013-04-09 21:52:00,
2013-04-09 15:00:00,69.0,-99.9,-100.00,NW,321,5.0,-999.0,25,0.00,,,-99.99,,2013-04-09 22:00:00,
2013-04-09 15:23:00,69.0,32.0,-100.00,NW,321,5.0,-999.0,25,0.00,,,-99.99,,2013-04-09 22:23:00,
2013-04-09 15:33:00,69.0,32.0,-100.00,NW,321,5.0,-999.0,25,0.00,,,-99.99,,2013-04-09 22:33:00,
2013-04-09 15:42:00,69.0,32.0,-100.00,NW,321,5.0,-999.0,25,0.00,,,-99.99,,2013-04-09 22:42:00,
2013-04-09 15:53:00,69.0,32.0,-100.00,NW,321,5.0,-999.0,25,0.00,,,-99.99,,2013-04-09 22:53:00,
2013-04-09 16:00:00,71.0,35.0,-100.00,NW,324,5.0,-999.0,26,0.00,,,-99.99,,2013-04-09 23:00:00,
2013-04-09 16:23:00,71.0,35.0,-100.00,NW,324,5.0,-999.0,26,0.00,,,-99.99,,2013-04-09 23:23:00,
2013-04-09 16:33:00,71.0,35.0,-100.00,NW,324,5.0,-999.0,26,0.00,,,-99.99,,2013-04-09 23:33:00,
2013-04-09 16:42:00,71.0,35.0,-100.00,NW,324,5.0,-999.0,26,0.00,,,-99.99,,2013-04-09 23:42:00,
2013-04-09 16:53:00,71.0,35.0,-100.00,NW,324,5.0,-999.0,26,0.00,,,-99.99,,2013-04-09 23:53:00,
2013-04-09 17:00:00,72.0,35.0,-100.00,NW,322,3.0,-999.0,25,0.00,,,-99.99,,2013-04-10 00:00:00,
2013-04-09 17:33:00,72.0,35.0,-100.00,NW,322,3.0,-999.0,25,0.00,,,-99.99,,2013-04-10 00:33:00,
2013-04-09 17:42:00,72.0,35.0,-100.00,NW,322,3.0,-999.0,25,0.00,,,-99.99,,2013-04-10 00:42:00,
2013-04-09 17:52:00,72.0,35.0,-100.00,NW,322,3.0,-999.0,25,0.00,,,-99.99,,2013-04-10 00:52:00,
2013-04-09 18:23:00,72.0,38.0,-100.00,NNW,328,4.0,-999.0,28,0.00,,,-99.99,,2013-04-10 01:23:00,
2013-04-09 18:33:00,72.0,38.0,-100.00,NNW,328,4.0,-999.0,28,0.00,,,-99.99,,2013-04-10 01:33:00,
2013-04-09 18:43:00,72.0,38.0,-100.00,NNW,328,4.0,-999.0,28,0.00,,,-99.99,,2013-04-10 01:43:00,
2013-04-09 18:52:00,72.0,38.0,-100.00,NNW,328,4.0,-999.0,28,0.00,,,-99.99,,2013-04-10 01:52:00,
2013-04-09 19:00:00,68.0,37.0,-100.00,NNW,329,4.0,-999.0,32,0.00,,,-99.99,,2013-04-10 02:00:00,
2013-04-09 19:23:00,68.0,37.0,-100.00,NNW,329,4.0,-999.0,32,0.00,,,-99.99,,2013-04-10 02:23:00,
2013-04-09 19:33:00,68.0,37.0,-100.00,NNW,329,4.0,-999.0,32,0.00,,,-99.99,,2013-04-10 02:33:00,
2013-04-09 19:43:00,68.0,37.0,-100.00,NNW,329,4.0,-999.0,32,0.00,,,-99.99,,2013-04-10 02:43:00,
2013-04-09 19:52:00,68.0,37.0,-100.00,NNW,329,4.0,-999.0,32,0.00,,,-99.99,,2013-04-10 02:52:00,
2013-04-09 20:22:00,66.0,37.0,-100.00,NNW,332,3.0,-999.0,34,0.00,,,-99.99,,2013-04-10 03:22:00,
2013-04-09 20:33:00,66.0,37.0,-100.00,NNW,332,3.0,-999.0,34,0.00,,,-99.99,,2013-04-10 03:33:00,
2013-04-09 20:43:00,66.0,37.0,-100.00,NNW,332,3.0,-999.0,34,0.00,,,-99.99,,2013-04-10 03:43:00,
2013-04-09 20:52:00,66.0,37.0,-100.00,NNW,332,3.0,-999.0,34,0.00,,,-99.99,,2013-04-10 03:52:00,
2013-04-09 21:00:00,62.0,41.0,-100.00,South,184,1.0,-999.0,46,0.00,,,-99.99,,2013-04-10 04:00:00,
2013-04-09 21:23:00,62.0,41.0,-100.00,South,184,1.0,-999.0,46,0.00,,,-99.99,,2013-04-10 04:23:00,
2013-04-09 21:33:00,62.0,41.0,-100.00,South,184,1.0,-999.0,46,0.00,,,-99.99,,2013-04-10 04:33:00,
2013-04-09 21:43:00,62.0,41.0,-100.00,South,184,1.0,-999.0,46,0.00,,,-99.99,,2013-04-10 04:43:00,
2013-04-09 21:53:00,62.0,41.0,-100.00,South,184,1.0,-999.0,46,0.00,,,-99.99,,2013-04-10 04:53:00,
2013-04-09 22:00:00,57.0,42.0,-100.00,SE,130,2.0,-999.0,57,0.00,,,-99.99,,2013-04-10 05:00:00,
2013-04-09 22:23:00,57.0,42.0,-100.00,SE,130,2.0,-999.0,57,0.00,,,-99.99,,2013-04-10 05:23:00,
2013-04-09 22:33:00,57.0,42.0,-100.00,SE,130,2.0,-999.0,57,0.00,,,-99.99,,2013-04-10 05:33:00,
2013-04-09 22:43:00,57.0,42.0,-100.00,SE,130,2.0,-999.0,57,0.00,,,-99.99,,2013-04-10 05:43:00,
2013-04-09 22:53:00,57.0,42.0,-100.00,SE,130,2.0,-999.0,57,0.00,,,-99.99,,2013-04-10 05:53:00,
2013-04-09 23:00:00,54.0,44.0,-100.00,SE,133,1.0,-999.0,68,0.00,,,-99.99,,2013-04-10 06:00:00,
2013-04-09 23:22:00,54.0,44.0,-100.00,SE,133,1.0,-999.0,68,0.00,,,-99.99,,2013-04-10 06:22:00,
2013-04-09 23:32:00,54.0,44.0,-100.00,SE,133,1.0,-999.0,68,0.00,,,-99.99,,2013-04-10 06:32:00,
2013-04-09 23:42:00,54.0,44.0,-100.00,SE,133,1.0,-999.0,68,0.00,,,-99.99,,2013-04-10 06:42:00,
2013-04-09 23:52:00,54.0,44.0,-100.00,SE,133,1.0,-999.0,68,0.00,,,-99.99,,2013-04-10 06:52:00,